Location: Camps Bay
(33.9517°S, 18.3844°E)
Time: 21:33:22
(UTC+00:00)

Meteor 1-21 - Pass Details

Date: 18 January 2020
Orbit: 844 x 888 km, 81.2° (Epoch: 16 February)

Event Time Altitude Azimuth Distance (km) Brightness Sun altitude
Exits shadow 02:42:04 - 353° (N) 2,809 6.5 -13.5°
Reaches altitude 10° 02:42:53 10° 353° (N) 2,496 6.3 -13.3°
Maximum altitude 02:48:35 90° 260° (W) 881 4.3 -12.4°
Drops below altitude 10° 02:54:25 10° 172° (S) 2,557 7.3 -11.4°
Sets 02:56:54 0° 171° (S) 3,508 8.1 -11.0°
